Location: Oberwangen
(47.4286°N, 8.9679°E)
Time: 08:25:23
(UTC+00:00)

Cosmos 1447 Rocket - Pass Details

Date: 29 October 2021
Orbit: 953 x 996 km, 82.9° (Epoch: 27 November)

Event Time Altitude Azimuth Distance (km) Brightness Sun altitude
Rises 19:10:40 0° 339° (NNW) 3,642 7.9 -30.7°
Reaches altitude 10° 19:13:52 10° 322° (NW) 2,692 7.4 -31.2°
Maximum altitude 19:17:59 19° 280° (W) 2,104 6.9 -31.9°
Drops below altitude 10° 19:22:06 10° 237° (WSW) 2,688 7.2 -32.6°
Sets 19:25:20 0° 220° (SW) 3,634 7.8 -33.1°
